Location: Moena
(46.3667°N, 11.6500°E)
Time: 15:28:56
(UTC+00:00)

Okean 1 - Pass Details

Date: 03 March 2021
Orbit: 539 x 554 km, 82.5° (Epoch: 15 April)

Event Time Altitude Azimuth Distance (km) Brightness Sun altitude
Rises 17:52:53 0° 352° (N) 2,732 7.0 -9.5°
Reaches altitude 10° 17:55:04 10° 353° (N) 1,836 6.1 -9.9°
Maximum altitude 17:59:07 80° 81° (E) 567 3.2 -10.6°
Drops below altitude 10° 18:03:08 10° 168° (SSE) 1,828 5.8 -11.3°
Sets 18:05:18 0° 170° (S) 2,719 6.7 -11.6°
